Location: Lincolnton
(35.4660°N, 81.2500°W)
Time: 00:16:46
(UTC-04:00)

Hubble Space Telescope - Visible Passes

Search period start: 24 October 2017 00:00
Search period end: 03 November 2017 00:00
Orbit: 537 x 541 km, 28.5° (Epoch: 23 October)

Date Brightness Start Highest point End Pass type
(mag) Time Alt. Az. Time Alt. Az. Time Alt. Az.
24 Oct 2.1 19:45:15 10° SW 19:48:51 29° S 19:50:53 19° SE visible
24 Oct 3.9 21:26:08 10° WSW 21:26:15 11° WSW 21:26:15 11° WSW visible
25 Oct 2.1 19:34:58 10° WSW 19:38:37 30° S 19:41:16 16° ESE visible
25 Oct 3.7 21:15:59 10° WSW 21:16:38 13° WSW 21:16:38 13° WSW visible
26 Oct 2.1 19:24:42 10° WSW 19:28:22 31° S 19:31:41 12° ESE visible
26 Oct 3.4 21:05:52 10° WSW 21:07:03 16° SW 21:07:03 16° SW visible
27 Oct 2.2 19:14:28 10° WSW 19:18:07 30° S 19:21:46 10° ESE visible
27 Oct 3.2 20:55:49 10° WSW 20:57:29 17° SW 20:57:29 17° SW visible
28 Oct 2.3 19:04:15 10° WSW 19:07:52 29° S 19:11:28 10° SE visible
28 Oct 3.1 20:45:50 10° WSW 20:47:59 17° SSW 20:47:59 17° SSW visible
29 Oct 2.5 18:54:03 10° WSW 18:57:37 28° S 19:01:09 10° SE visible
29 Oct 3.2 20:35:58 10° SW 20:38:17 15° SSW 20:38:33 14° SSW visible
30 Oct 3.4 20:26:22 10° SW 20:27:58 12° SSW 20:29:13 11° S visible
